This is the latest recevied weather packets stored in our database for station/object DB0SVX. If no packets are shown the sender has not sent any weather packets the latest 1 day(s).
| Time | Temp. | Humidity | Pressure | Rain* | Wind** | Luminosity | Snow |
|---|---|---|---|---|---|---|---|
| 1777965021 | 16.67° C | 36% | 1007.9 hPa | 0 mm | 0 m/s | - | - |
| 1777964121 | 15.56° C | 30% | 1008 hPa | 0 mm | 0 m/s | - | - |
| 1777963221 | 13.33° C | 28% | 1008.2 hPa | 0 mm | 1.34 m/s, 270° | - | - |
| 1777962321 | 12.22° C | 23% | 1008.2 hPa | 0 mm | 1.34 m/s, 270° | - | - |
| 1777961421 | 11.11° C | 20% | 1008.2 hPa | 0 mm | 0 m/s | - | - |
| 1777960521 | 10.56° C | 19% | 1008.2 hPa | 0 mm | 0.89 m/s, 247° | - | - |
| 1777959621 | 10° C | 16% | 1008.5 hPa | 0 mm | 0.89 m/s, 247° | - | - |
| 1777958721 | 9.44° C | 15% | 1008.2 hPa | 0 mm | 0 m/s | - | - |
| 1777957821 | 8.89° C | 18% | 1008.2 hPa | 0 mm | 0.89 m/s, 270° | - | - |
| 1777956921 | 7.78° C | 22% | 1008.2 hPa | 0 mm | 0.45 m/s, 270° | - | - |
| 1777956021 | 7.22° C | 25% | 1008.4 hPa | 0 mm | 0 m/s | - | - |
| 1777955121 | 7.22° C | 29% | 1008.5 hPa | 0 mm | 0 m/s | - | - |
| 1777954221 | 6.67° C | 32% | 1008.7 hPa | 0 mm | 0 m/s | - | - |
| 1777953321 | 6.67° C | 35% | 1008.5 hPa | 0 mm | 0 m/s | - | - |
| 1777952421 | 6.67° C | 35% | 1008.5 hPa | 0 mm | 0 m/s | - | - |
| 1777951521 | 7.22° C | 36% | 1008.9 hPa | 0 mm | 0 m/s | - | - |
| 1777950621 | 7.22° C | 37% | 1008.7 hPa | 0 mm | 0 m/s | - | - |
| 1777949721 | 7.22° C | 39% | 1008.9 hPa | 0 mm | 0 m/s | - | - |
| 1777948821 | 7.22° C | 39% | 1009 hPa | 0 mm | 0 m/s | - | - |
| 1777947921 | 7.78° C | 40% | 1009 hPa | 0 mm | 0 m/s | - | - |
| 1777947021 | 7.78° C | 42% | 1009.4 hPa | 0 mm | 0 m/s | - | - |
| 1777946121 | 7.78° C | 43% | 1009.5 hPa | 0 mm | 0 m/s | - | - |
* Rain latest hour (hover to see other rain measurements)
** Current wind speed in m/s (hover to see current wind gust speed)